Regional Weather Roundup
Issued by NWS Sioux Falls, SD

Home | Current Version | Previous Version | Graphics & Text | Print | Product List | Glossary On
Versions: 1 2 3 4 5 6 7 8 9 10 11 12 13 14 15 16 17 18 19 20 21 22 23 24 25 26 27 28 29 30 31 32 33 34 35 36 37 38 39 40 41 42 43 44 45 46 47 48 49 50
000
ASUS43 KFSD 300510
RWRFSD

WEATHER ROUNDUP FOR SE SOUTH DAKOTA/SW MINNESOTA/NW IOWA
NATIONAL WEATHER SERVICE SIOUX FALLS SD
1200 AM CDT SAT AUG 30 2014

NOTE: "FAIR" INDICATES FEW OR NO CLOUDS BELOW 12,000 FEET WITH NO
SIGNIFICANT WEATHER AND OR OBSTRUCTIONS TO VISIBILITY.


SDZ038>040-050-052>070-300600-
SOUTHEAST SOUTH DAKOTA

CITY           SKY/WX    TMP DP  RH WIND       PRES   REMARKS
CHAMBERLAIN    CLEAR     63  60  89 N5        29.94R
HURON          MOCLDY    63  59  87 N12       29.89R
MADISON        MOCLDY    66  66 100 NW8       29.86S
MITCHELL       MOCLDY    66  63  90 N12       29.89R
SIOUX FALLS    MOCLDY    65  63  93 CALM      29.84R
WINNER         FAIR      60  56  86 W7        29.96S
YANKTON        CLOUDY    66  63  88 MISG      29.86R
$$

MNZ071-072-080-081-089-090-097-098-300600-
SOUTHWEST MINNESOTA

CITY           SKY/WX    TMP DP  RH WIND       PRES   REMARKS
FAIRMONT       CLOUDY    64  63  94 NW7       29.78F
JACKSON        RAIN      66  63  88 NW6       29.82F
LUVERNE        PTCLDY    64  63  94 CALM      29.84R
MARSHALL       CLOUDY    66  64  94 NW7       29.81S
MONTEVIDEO     MOCLDY    66  66 100 CALM      29.82S
PIPESTONE      FOG       64  64 100 CALM      29.84S VSB 1/2
REDWOOD FALLS  MOCLDY    65  65 100 W5        29.79S
TRACY          MOCLDY    68  67  96 CALM      29.83R
WINDOM         CLOUDY    66  64  94 CALM      29.82S
WORTHINGTON    CLOUDY    64  64 100 NW5       29.84S
$$

IAZ001>003-012>014-020>022-031-032-NEZ013-014-SDZ071-300600-
NORTHWEST IOWA

CITY           SKY/WX    TMP DP  RH WIND       PRES   REMARKS
CHEROKEE       MOCLDY    65  65 100 CALM      29.82S FOG
DENISON        CLOUDY    64  64 100 CALM      29.80F
ESTHERVILLE    CLOUDY    66  66 100 NW3       29.79F
LE MARS          N/A     64  64 100 CALM      29.84S
ORANGE CITY    PTCLDY    64  63  94 W6        29.84R
SHELDON        MOCLDY    63  63 100 W3        29.82S
SIOUX CITY     PTCLDY    66  65  96 CALM      29.83R
SPENCER        CLOUDY    66  64  93 NW6       29.81F
STORM LAKE     CLOUDY    66  66 100 SW5       29.82F FOG
$$

ABBREVIATIONS USED IN REMARKS
   TC - TEMPERATURE IN CELSIUS
  WCI - WIND CHILL INDEX
   HX - HEAT INDEX
  VSB - VISIBILITY



USA.gov is the U.S. government's official web portal to all federal, state and local government web resources and services.